Weather History for Madison, SD

Change the Weather History Date:

Monday, January 21, 2013

  Actual Average Record
Temperature  
Mean Temperature -4 °F -  
Max Temperature 1 °F 23 °F 17 °F (2012)
Min Temperature -9 °F 7 °F -11 °F (2014)
Degree Days  
Heating Degree Days 69    
Moisture  
Dew Point -9 °F    
Average Humidity 77    
Maximum Humidity 92    
Minimum Humidity 65    
Precipitation  
Precipitation 0.00 in - - ()
Sea Level Pressure  
Sea Level Pressure 30.30 in    
Wind  
Wind Speed 19 mph (NW)    
Max Wind Speed 28 mph    
Max Gust Speed 36 mph    
Visibility 10 miles    
Events      
Averages and records for this station are not official NWS values.
T = Trace of Precipitation, MM = Missing Value Source: NWS Daily Summary

Daily Weather History Graph

Daily Weather History Graph

Search for Another Location

Airport:

Trip Planner

Search our weather history database for the weather conditions in past years. The results will help you decide how hot, cold, wet, or windy it might be!

Date:

Astronomy

Jan. 21, 2013 Rise Set
Actual Time 7:55 AM CST 5:24 PM CST
Civil Twilight 7:24 AM CST 5:55 PM CST
Nautical Twilight 6:48 AM CST 6:31 PM CST
Astronomical Twilight 6:14 AM CST 7:05 PM CST
Moon 1:04 PM CST (1/21) 3:25 AM CST (1/21)
Length of Visible Light 10h 31m
Length of Day
9h 28m
Waxing Gibbous, 75% of the Moon is Illuminated
Jan 21
Waxing Gibbous
Jan 26
Full
Feb 3
Last Quarter
Feb 10
New
Feb 17
First Quarter

Hourly Weather History & Observations

Time (CST) Temp. Windchill Dew Point Humidity Pressure Visibility Wind Dir Wind Speed Gust Speed Precip Events Conditions
12:00 AM -4.0 °F -30.4 °F -9.4 °F 78% 30.34 in 10.0 mi NNW 27.6 mph 35.7 mph N/A   Overcast
12:20 AM -4.0 °F -30.0 °F -13.0 °F 65% 30.34 in 10.0 mi NNW 26.5 mph 33.4 mph N/A   Mostly Cloudy
12:40 AM -4.0 °F -30.0 °F -11.2 °F 71% 30.34 in 10.0 mi NNW 26.5 mph 34.5 mph N/A   Overcast
1:00 AM -5.8 °F -29.4 °F -13.0 °F 71% 30.34 in 10.0 mi NW 19.6 mph 27.6 mph N/A   Overcast
1:20 AM -5.8 °F -31.5 °F -13.0 °F 71% 30.34 in 10.0 mi NW 24.2 mph 32.2 mph N/A   Overcast
2:00 AM -5.8 °F -32.0 °F -13.0 °F 71% 30.35 in 10.0 mi NNW 25.3 mph 31.1 mph N/A   Overcast
2:20 AM -7.6 °F -31.1 °F -13.0 °F 77% 30.35 in 10.0 mi NW 18.4 mph 28.8 mph N/A   Overcast
2:40 AM -7.6 °F -31.1 °F -13.0 °F 77% 30.35 in 10.0 mi NW 18.4 mph 26.5 mph N/A   Overcast
3:00 AM -7.6 °F -31.1 °F - N/A% 30.35 in 10.0 mi NW 18.4 mph 25.3 mph N/A   Overcast
3:20 AM -7.6 °F -31.7 °F -13.0 °F 77% 30.34 in 10.0 mi NW 19.6 mph 28.8 mph N/A   Overcast
3:40 AM -7.6 °F -31.1 °F -13.0 °F 77% 30.34 in 10.0 mi NW 18.4 mph 24.2 mph N/A   Overcast
4:00 AM -7.6 °F -32.9 °F -13.0 °F 77% 30.33 in 10.0 mi NW 21.9 mph 27.6 mph N/A   Overcast
4:20 AM -7.6 °F -31.7 °F -13.0 °F 77% 30.33 in 10.0 mi NW 19.6 mph - N/A   Mostly Cloudy
4:40 AM -7.6 °F -29.8 °F -13.0 °F 77% 30.32 in 10.0 mi NW 16.1 mph - N/A   Overcast
5:00 AM -7.6 °F -30.5 °F -13.0 °F 77% 30.33 in 10.0 mi NW 17.3 mph 23.0 mph N/A   Overcast
5:20 AM -7.6 °F -30.5 °F -14.8 °F 71% 30.32 in 10.0 mi NW 17.3 mph 24.2 mph N/A   Overcast
5:40 AM -7.6 °F -31.1 °F -14.8 °F 71% 30.32 in 10.0 mi NW 18.4 mph 23.0 mph N/A   Mostly Cloudy
6:00 AM -7.6 °F -29.1 °F -13.0 °F 77% 30.32 in 10.0 mi NW 15.0 mph 21.9 mph N/A   Scattered Clouds
6:20 AM -9.4 °F -32.1 °F -14.8 °F 77% 30.31 in 10.0 mi NW 16.1 mph 21.9 mph N/A   Clear
6:40 AM -9.4 °F -30.6 °F -14.8 °F 77% 30.31 in 10.0 mi NW 13.8 mph 21.9 mph N/A   Clear
7:00 AM -9.4 °F -31.4 °F -14.8 °F 77% 30.31 in 10.0 mi WNW 15.0 mph - N/A   Clear
7:20 AM -9.4 °F -31.4 °F -14.8 °F 77% 30.31 in 10.0 mi NW 15.0 mph - N/A   Clear
7:40 AM -9.4 °F -32.1 °F -14.8 °F 77% 30.31 in 10.0 mi WNW 16.1 mph 21.9 mph N/A   Clear
8:00 AM -9.4 °F -29.8 °F -14.8 °F 77% 30.32 in 10.0 mi WNW 12.7 mph - N/A   Clear
8:20 AM -9.4 °F -31.4 °F -14.8 °F 77% 30.33 in 10.0 mi WNW 15.0 mph - N/A   Clear
8:40 AM -7.6 °F -29.8 °F -14.8 °F 71% 30.33 in 10.0 mi WNW 16.1 mph 20.7 mph N/A   Clear
9:00 AM -7.6 °F -32.3 °F -14.8 °F 71% 30.33 in 10.0 mi WNW 20.7 mph 25.3 mph N/A   Clear
9:20 AM -7.6 °F -31.1 °F -13.0 °F 77% 30.34 in 10.0 mi WNW 18.4 mph 24.2 mph N/A   Clear
9:40 AM -5.8 °F -29.9 °F -13.0 °F 71% 30.34 in 10.0 mi NW 20.7 mph 25.3 mph N/A   Clear
10:00 AM -5.8 °F -29.4 °F -13.0 °F 71% 30.34 in 10.0 mi NW 19.6 mph - N/A   Clear
10:20 AM -4.0 °F -27.0 °F -13.0 °F 65% 30.34 in 10.0 mi NW 19.6 mph 26.5 mph N/A   Clear
10:40 AM -4.0 °F -26.4 °F -13.0 °F 65% 30.34 in 10.0 mi NW 18.4 mph - N/A   Clear
11:00 AM -4.0 °F -27.0 °F - N/A% 30.34 in 10.0 mi NW 19.6 mph 24.2 mph N/A   Clear
11:20 AM -4.0 °F -26.4 °F -11.2 °F 71% 30.33 in 10.0 mi WNW 18.4 mph - N/A   Clear
11:40 AM -4.0 °F -25.8 °F -11.2 °F 71% 30.32 in 10.0 mi WNW 17.3 mph - N/A   Clear
12:00 PM -2.2 °F -25.2 °F -11.2 °F 66% 30.31 in 10.0 mi WNW 20.7 mph 25.3 mph N/A   Clear
12:20 PM -2.2 °F -24.1 °F -9.4 °F 71% 30.31 in 10.0 mi WNW 18.4 mph - N/A   Clear
12:40 PM -2.2 °F -24.1 °F -9.4 °F 71% 30.30 in 10.0 mi WNW 18.4 mph - N/A   Clear
1:00 PM -0.4 °F -21.2 °F -7.6 °F 72% 30.30 in 10.0 mi WNW 17.3 mph - N/A   Clear
1:20 PM -0.4 °F -20.5 °F -7.6 °F 72% 30.29 in 10.0 mi NW 16.1 mph - N/A   Clear
1:40 PM -0.4 °F -20.5 °F -7.6 °F 72% 30.28 in 10.0 mi WNW 16.1 mph 23.0 mph N/A   Clear
2:00 PM -0.4 °F -21.2 °F -7.6 °F 72% 30.27 in 10.0 mi WNW 17.3 mph 21.9 mph N/A   Clear
2:20 PM -0.4 °F -19.9 °F -5.8 °F 78% 30.27 in 10.0 mi WNW 15.0 mph - N/A   Clear
2:40 PM -0.4 °F -18.4 °F -5.8 °F 78% 30.27 in 10.0 mi WNW 12.7 mph - N/A   Clear
3:00 PM 1.4 °F -18.8 °F -4.0 °F 78% 30.27 in 10.0 mi WNW 17.3 mph - N/A   Clear
3:20 PM 1.4 °F -18.2 °F -4.0 °F 78% 30.27 in 10.0 mi WNW 16.1 mph - N/A   Clear
3:40 PM 1.4 °F -19.4 °F -4.0 °F 78% 30.26 in 10.0 mi WNW 18.4 mph - N/A   Clear
4:00 PM 1.4 °F -18.8 °F -4.0 °F 78% 30.26 in 10.0 mi WNW 17.3 mph 21.9 mph N/A   Clear
4:20 PM -0.4 °F -20.5 °F -4.0 °F 85% 30.26 in 10.0 mi WNW 16.1 mph 20.7 mph N/A   Clear
4:40 PM -0.4 °F -18.4 °F -5.8 °F 78% 30.26 in 10.0 mi WNW 12.7 mph - N/A   Clear
5:00 PM -0.4 °F -17.6 °F -5.8 °F 78% 30.27 in 10.0 mi WNW 11.5 mph - N/A   Clear
5:20 PM -0.4 °F -17.6 °F -5.8 °F 78% 30.27 in 10.0 mi WNW 11.5 mph - N/A   Clear
5:40 PM -0.4 °F -17.6 °F -5.8 °F 78% 30.27 in 10.0 mi WNW 11.5 mph - N/A   Clear
6:00 PM -0.4 °F -17.6 °F -5.8 °F 78% 30.27 in 10.0 mi WNW 11.5 mph 16.1 mph N/A   Clear
6:20 PM -0.4 °F -18.4 °F -5.8 °F 78% 30.26 in 10.0 mi WNW 12.7 mph - N/A   Clear
6:40 PM -0.4 °F -17.6 °F -5.8 °F 78% 30.26 in 10.0 mi WNW 11.5 mph - N/A   Clear
7:00 PM -0.4 °F -16.7 °F -5.8 °F 78% 30.26 in 10.0 mi WNW 10.4 mph - N/A   Clear
7:20 PM -2.2 °F -18.9 °F -5.8 °F 85% 30.26 in 10.0 mi West 10.4 mph - N/A   Clear
7:40 PM -0.4 °F -15.7 °F -5.8 °F 78% 30.26 in 10.0 mi WNW 9.2 mph - N/A   Clear
8:00 PM -0.4 °F -16.7 °F -5.8 °F 78% 30.25 in 10.0 mi WNW 10.4 mph - N/A   Clear
8:20 PM -0.4 °F -16.7 °F -5.8 °F 78% 30.25 in 10.0 mi WNW 10.4 mph - N/A   Clear
8:40 PM -0.4 °F -16.7 °F -4.0 °F 85% 30.26 in 10.0 mi WNW 10.4 mph - N/A   Partly Cloudy
9:00 PM -0.4 °F -18.4 °F -4.0 °F 85% 30.26 in 10.0 mi WNW 12.7 mph - N/A   Partly Cloudy
9:20 PM -0.4 °F -17.6 °F -2.2 °F 92% 30.26 in 10.0 mi WNW 11.5 mph - N/A   Partly Cloudy
9:40 PM 1.4 °F -15.3 °F -2.2 °F 85% 30.26 in 10.0 mi WNW 11.5 mph - N/A   Scattered Clouds
10:00 PM 1.4 °F -16.1 °F -2.2 °F 85% 30.26 in 10.0 mi WNW 12.7 mph - N/A   Mostly Cloudy
10:20 PM 1.4 °F -16.9 °F -2.2 °F 85% 30.26 in 10.0 mi WNW 13.8 mph - N/A   Overcast
10:40 PM 1.4 °F -16.1 °F -2.2 °F 85% 30.26 in 10.0 mi WNW 12.7 mph - N/A   Overcast
11:00 PM 1.4 °F -16.1 °F -2.2 °F 85% 30.26 in 10.0 mi WNW 12.7 mph - N/A   Overcast
11:20 PM 1.4 °F -15.3 °F -2.2 °F 85% 30.25 in 10.0 mi WNW 11.5 mph - N/A   Mostly Cloudy
11:40 PM 1.4 °F -13.5 °F -2.2 °F 85% 30.26 in 10.0 mi NW 9.2 mph - N/A   Mostly Cloudy